When you browse on this site, cookies collect data to enhance your experience and personalize the content and advertising you see.
Visit our Privacy Policy to learn more. By continuing to use the site, you agree to this use of cookies and data.
  • în România
  • Lista ţărilor
  • Pe 7 zile
  • Temperatura apei
  • Hartă satelitară
  • Meteo pe hartă
  • Widget-uri
  • user-avatar
    Intrare

    Meteo pe oră la Ordino

    Astăzi, 17 Iunie, Luni

    Timp Temperatura Precipitaţii Vânt Presiune Umiditate
    00:00 +11°C° 0 mm 1 m/s 634 mmHg 79%
    01:00 +11°C° 0 mm 1 m/s 634 mmHg 76%
    02:00 +11°C° 0 mm 1 m/s 634 mmHg 74%
    03:00 +10°C° 0 mm 1 m/s 633 mmHg 72%
    04:00 +12°C° 0 mm 1 m/s 634 mmHg 70%
    05:00 +13°C° 0 mm 1 m/s 634 mmHg 69%
    06:00 +14°C° 0 mm 1 m/s 635 mmHg 65%
    07:00 +16°C° 0 mm 1 m/s 636 mmHg 57%
    08:00 +19°C° 0 mm 1 m/s 636 mmHg 50%
    09:00 +21°C° 0 mm 1 m/s 637 mmHg 43%
    10:00 +22°C° 0 mm 1 m/s 637 mmHg 42%
    11:00 +21°C° 0 mm 2 m/s 637 mmHg 41%
    12:00 +23°C° 0 mm 2 m/s 637 mmHg 39%
    13:00 +23°C° 0.2 mm 2 m/s 637 mmHg 41%
    14:00 +23°C° 0.2 mm 2 m/s 636 mmHg 42%
    15:00 +21°C° 0.2 mm 2 m/s 636 mmHg 44%
    16:00 +22°C° 0.1 mm 1 m/s 635 mmHg 48%
    17:00 +21°C° 0.1 mm 1 m/s 635 mmHg 53%
    18:00 +20°C° 0.1 mm 1 m/s 635 mmHg 58%
    19:00 +18°C° 0 mm 1 m/s 634 mmHg 65%
    20:00 +15°C° 0 mm 1 m/s 634 mmHg 71%
    21:00 +13°C° 0 mm 1 m/s 633 mmHg 77%
    22:00 +13°C° 0 mm 1 m/s 633 mmHg 75%
    23:00 +13°C° 0 mm 1 m/s 633 mmHg 74%

    Mâine, 18 Iunie, Marţi

    Timp Temperatura Precipitaţii Vânt Presiune Umiditate
    00:00 +13°C° 0 mm 1 m/s 633 mmHg 72%
    01:00 +13°C° 0 mm 1 m/s 633 mmHg 72%
    02:00 +13°C° 0 mm 1 m/s 632 mmHg 72%
    03:00 +12°C° 0 mm 1 m/s 632 mmHg 72%
    04:00 +13°C° 0 mm 1 m/s 632 mmHg 69%
    05:00 +14°C° 0 mm 1 m/s 633 mmHg 66%
    06:00 +15°C° 0 mm 1 m/s 633 mmHg 62%
    07:00 +19°C° 0 mm 1 m/s 634 mmHg 54%
    08:00 +20°C° 0 mm 2 m/s 635 mmHg 46%
    09:00 +23°C° 0 mm 2 m/s 635 mmHg 37%
    10:00 +22°C° 0 mm 3 m/s 635 mmHg 36%
    11:00 +24°C° 0 mm 3 m/s 636 mmHg 34%
    12:00 +25°C° 0 mm 4 m/s 636 mmHg 32%
    13:00 +23°C° 0 mm 4 m/s 635 mmHg 33%
    14:00 +23°C° 0 mm 4 m/s 635 mmHg 33%
    15:00 +23°C° 0 mm 4 m/s 634 mmHg 34%
    16:00 +22°C° 0 mm 4 m/s 634 mmHg 39%
    17:00 +21°C° 0 mm 3 m/s 634 mmHg 43%
    18:00 +20°C° 0 mm 2 m/s 633 mmHg 48%
    19:00 +18°C° 0 mm 2 m/s 633 mmHg 54%
    20:00 +15°C° 0 mm 1 m/s 632 mmHg 59%
    21:00 +13°C° 0 mm 1 m/s 631 mmHg 64%
    22:00 +13°C° 0 mm 1 m/s 631 mmHg 63%
    23:00 +13°C° 0 mm 1 m/s 631 mmHg 61%

    Poimâine, 19 Iunie, Miercuri

    Timp Temperatura Precipitaţii Vânt Presiune Umiditate
    00:00 +12°C° 0 mm 1 m/s 632 mmHg 60%
    01:00 +12°C° 0 mm 1 m/s 631 mmHg 59%
    02:00 +12°C° 0 mm 1 m/s 631 mmHg 58%
    03:00 +12°C° 0 mm 1 m/s 631 mmHg 57%
    04:00 +13°C° 0 mm 1 m/s 632 mmHg 56%
    05:00 +14°C° 0 mm 1 m/s 632 mmHg 56%
    06:00 +15°C° 0 mm 1 m/s 633 mmHg 56%
    07:00 +18°C° 0 mm 1 m/s 634 mmHg 49%
    08:00 +19°C° 0 mm 2 m/s 634 mmHg 41%
    09:00 +21°C° 0 mm 2 m/s 635 mmHg 34%
    10:00 +21°C° 0 mm 3 m/s 635 mmHg 33%
    11:00 +22°C° 0 mm 3 m/s 635 mmHg 32%
    12:00 +24°C° 0 mm 3 m/s 635 mmHg 31%
    13:00 +24°C° 0 mm 3 m/s 635 mmHg 31%
    14:00 +24°C° 0 mm 3 m/s 635 mmHg 32%
    15:00 +24°C° 0 mm 3 m/s 634 mmHg 32%
    16:00 +22°C° 0 mm 3 m/s 634 mmHg 40%
    17:00 +20°C° 0 mm 2 m/s 633 mmHg 47%
    18:00 +19°C° 0 mm 2 m/s 633 mmHg 55%
    19:00 +18°C° 0 mm 1 m/s 632 mmHg 60%
    20:00 +15°C° 0 mm 1 m/s 632 mmHg 65%
    21:00 +12°C° 0 mm 0 m/s 631 mmHg 70%
    22:00 +13°C° 0 mm 1 m/s 631 mmHg 70%
    23:00 +13°C° 0 mm 1 m/s 631 mmHg 69%

    20 Iunie, Joi

    Timp Temperatura Precipitaţii Vânt Presiune Umiditate
    00:00 +13°C° 0 mm 1 m/s 631 mmHg 69%
    01:00 +13°C° 0 mm 1 m/s 631 mmHg 70%
    02:00 +12°C° 0 mm 1 m/s 631 mmHg 70%
    03:00 +12°C° 0 mm 1 m/s 631 mmHg 71%
    04:00 +13°C° 0 mm 1 m/s 631 mmHg 69%
    05:00 +13°C° 0 mm 0 m/s 632 mmHg 67%
    06:00 +14°C° 0 mm 0 m/s 633 mmHg 65%
    07:00 +16°C° 0 mm 1 m/s 633 mmHg 59%
    08:00 +18°C° 0 mm 2 m/s 634 mmHg 54%
    09:00 +20°C° 0 mm 2 m/s 635 mmHg 48%
    10:00 +20°C° 0 mm 3 m/s 635 mmHg 46%
    11:00 +21°C° 0 mm 3 m/s 635 mmHg 45%
    12:00 +22°C° 0 mm 4 m/s 635 mmHg 43%
    13:00 +21°C° 0 mm 4 m/s 635 mmHg 48%
    14:00 +20°C° 0 mm 4 m/s 634 mmHg 52%
    15:00 +20°C° 0 mm 4 m/s 634 mmHg 57%
    16:00 +19°C° 0.3 mm 3 m/s 634 mmHg 65%
    17:00 +18°C° 0.3 mm 2 m/s 633 mmHg 73%
    18:00 +18°C° 0.3 mm 1 m/s 633 mmHg 80%
    19:00 +15°C° 0.7 mm 1 m/s 633 mmHg 85%
    20:00 +14°C° 0.7 mm 1 m/s 633 mmHg 91%
    21:00 +13°C° 0.7 mm 1 m/s 633 mmHg 96%
    22:00 +13°C° 0.5 mm 1 m/s 633 mmHg 95%
    23:00 +13°C° 0.5 mm 1 m/s 633 mmHg 95%

    21 Iunie, Vineri

    Timp Temperatura Precipitaţii Vânt Presiune Umiditate
    00:00 +13°C° 0.5 mm 1 m/s 633 mmHg 95%
    01:00 +11°C° 0.2 mm 0 m/s 633 mmHg 96%
    02:00 +11°C° 0.2 mm 0 m/s 632 mmHg 96%
    03:00 +10°C° 0.2 mm 0 m/s 632 mmHg 97%
    04:00 +11°C° 0 mm 0 m/s 632 mmHg 95%
    05:00 +12°C° 0 mm 0 m/s 633 mmHg 94%
    06:00 +12°C° 0 mm 0 m/s 633 mmHg 92%
    07:00 +13°C° 0.4 mm 0 m/s 633 mmHg 90%
    08:00 +13°C° 0.4 mm 0 m/s 633 mmHg 87%
    09:00 +14°C° 0.4 mm 0 m/s 634 mmHg 85%
    10:00 +15°C° 1.5 mm 1 m/s 634 mmHg 86%
    11:00 +15°C° 1.5 mm 1 m/s 634 mmHg 87%
    12:00 +15°C° 1.5 mm 1 m/s 634 mmHg 87%
    13:00 +15°C° 3.1 mm 1 m/s 634 mmHg 88%
    14:00 +14°C° 3.1 mm 1 m/s 633 mmHg 89%
    15:00 +14°C° 3.1 mm 1 m/s 633 mmHg 90%
    16:00 +14°C° 1.5 mm 1 m/s 633 mmHg 91%
    17:00 +13°C° 1.5 mm 1 m/s 633 mmHg 92%
    18:00 +13°C° 1.5 mm 1 m/s 633 mmHg 92%
    19:00 +12°C° 0.4 mm 1 m/s 633 mmHg 94%
    20:00 +11°C° 0.4 mm 1 m/s 633 mmHg 95%
    21:00 +11°C° 0.4 mm 1 m/s 633 mmHg 96%
    22:00 +10°C° 0.3 mm 1 m/s 633 mmHg 96%
    23:00 +9°C° 0.3 mm 0 m/s 633 mmHg 96%

    22 Iunie, Sâmbătă

    Timp Temperatura Precipitaţii Vânt Presiune Umiditate
    00:00 +9°C° 0.3 mm 0 m/s 633 mmHg 95%
    01:00 +9°C° 0 mm 0 m/s 633 mmHg 96%
    02:00 +8°C° 0 mm 0 m/s 632 mmHg 97%
    03:00 +8°C° 0 mm 0 m/s 632 mmHg 97%
    04:00 +9°C° 0 mm 0 m/s 633 mmHg 96%
    05:00 +10°C° 0 mm 0 m/s 633 mmHg 94%
    06:00 +10°C° 0 mm 0 m/s 634 mmHg 93%
    07:00 +13°C° 0 mm 1 m/s 634 mmHg 84%
    08:00 +15°C° 0 mm 1 m/s 635 mmHg 75%
    09:00 +16°C° 0 mm 2 m/s 635 mmHg 66%
    10:00 +18°C° 0 mm 2 m/s 636 mmHg 60%
    11:00 +19°C° 0 mm 2 m/s 636 mmHg 54%
    12:00 +20°C° 0 mm 3 m/s 636 mmHg 48%
    13:00 +20°C° 0 mm 3 m/s 636 mmHg 49%
    14:00 +20°C° 0 mm 3 m/s 636 mmHg 49%
    15:00 +20°C° 0 mm 3 m/s 635 mmHg 49%
    16:00 +19°C° 0 mm 2 m/s 635 mmHg 54%
    17:00 +18°C° 0 mm 2 m/s 635 mmHg 59%
    18:00 +18°C° 0 mm 1 m/s 634 mmHg 64%
    19:00 +15°C° 0 mm 1 m/s 634 mmHg 66%
    20:00 +13°C° 0 mm 1 m/s 634 mmHg 67%
    21:00 +12°C° 0 mm 1 m/s 633 mmHg 69%
    22:00 +12°C° 0 mm 1 m/s 633 mmHg 66%
    23:00 +12°C° 0 mm 1 m/s 633 mmHg 63%
    Arată mai mult